Time,TemperatureF,DewpointF,PressureIn,WindDirection,WindDirectionDegrees,WindSpeedMPH,WindSpeedGustMPH,Humidity,HourlyPrecipIn,Conditions,Clouds,dailyrainin,SoftwareType,DateUTC
2013-10-14 00:01:00,37.9,34.1,30.28,West,270,0.0,0.0,86,0.00,,,0.00,WUHU21623XXSP,2013-10-14 05:01:00,
2013-10-14 00:06:00,37.8,33.6,30.29,West,270,0.0,0.0,85,0.00,,,0.00,WUHU21623XXSP,2013-10-14 05:06:00,
2013-10-14 00:11:00,37.6,33.4,30.28,West,270,0.0,0.0,85,0.00,,,0.00,WUHU21623XXSP,2013-10-14 05:11:00,
2013-10-14 00:16:00,37.4,33.3,30.29,West,270,0.0,0.0,85,0.00,,,0.00,WUHU21623XXSP,2013-10-14 05:16:00,
2013-10-14 00:21:00,37.4,33.3,30.28,West,270,0.0,0.0,85,0.00,,,0.00,WUHU21623XXSP,2013-10-14 05:21:00,
2013-10-14 00:26:00,37.2,33.1,30.28,West,270,0.0,0.0,85,0.00,,,0.00,WUHU21623XXSP,2013-10-14 05:26:00,
2013-10-14 00:31:00,37.2,33.1,30.28,West,270,0.0,0.0,85,0.00,,,0.00,WUHU21623XXSP,2013-10-14 05:31:00,
2013-10-14 00:36:00,37.2,33.1,30.28,West,270,0.0,0.0,85,0.00,,,0.00,WUHU21623XXSP,2013-10-14 05:36:00,
2013-10-14 00:41:00,37.0,32.9,30.28,West,270,0.0,0.0,85,0.00,,,0.00,WUHU21623XXSP,2013-10-14 05:41:00,
2013-10-14 00:46:00,37.2,33.1,30.28,West,270,0.0,0.0,85,0.00,,,0.00,WUHU21623XXSP,2013-10-14 05:46:00,
2013-10-14 00:51:00,37.2,33.1,30.28,West,270,0.0,0.0,85,0.00,,,0.00,WUHU21623XXSP,2013-10-14 05:51:00,
2013-10-14 00:56:00,37.0,32.6,30.28,West,270,0.0,0.0,84,0.00,,,0.00,WUHU21623XXSP,2013-10-14 05:56:00,
2013-10-14 01:01:00,37.2,32.8,30.28,West,270,0.0,0.0,84,0.00,,,0.00,WUHU21623XXSP,2013-10-14 06:01:00,
2013-10-14 01:08:00,37.2,32.8,30.29,West,270,0.0,0.0,84,0.00,,,0.00,WUHU21623XXSP,2013-10-14 06:08:00,
2013-10-14 01:13:00,36.9,33.0,30.29,West,270,0.0,0.0,86,0.00,,,0.00,WUHU21623XXSP,2013-10-14 06:13:00,
2013-10-14 01:18:00,36.5,32.6,30.29,West,270,0.0,0.0,86,0.00,,,0.00,WUHU21623XXSP,2013-10-14 06:18:00,
2013-10-14 01:23:00,36.3,32.5,30.30,West,270,0.0,0.0,86,0.00,,,0.00,WUHU21623XXSP,2013-10-14 06:23:00,
2013-10-14 01:28:00,36.1,32.6,30.30,West,270,0.0,0.0,87,0.00,,,0.00,WUHU21623XXSP,2013-10-14 06:28:00,
2013-10-14 01:33:00,36.3,32.8,30.30,West,270,0.0,0.0,87,0.00,,,0.00,WUHU21623XXSP,2013-10-14 06:33:00,
2013-10-14 01:38:00,36.3,32.8,30.30,West,270,0.0,0.0,87,0.00,,,0.00,WUHU21623XXSP,2013-10-14 06:38:00,
2013-10-14 01:43:00,36.3,32.8,30.30,West,270,0.0,0.0,87,0.00,,,0.00,WUHU21623XXSP,2013-10-14 06:43:00,
2013-10-14 01:48:00,36.9,33.3,30.30,West,270,0.0,0.0,87,0.00,,,0.00,WUHU21623XXSP,2013-10-14 06:48:00,
2013-10-14 01:53:00,36.9,33.3,30.30,West,270,0.0,0.0,87,0.00,,,0.00,WUHU21623XXSP,2013-10-14 06:53:00,
2013-10-14 01:58:00,36.3,32.8,30.30,West,270,0.0,0.0,87,0.00,,,0.00,WUHU21623XXSP,2013-10-14 06:58:00,
2013-10-14 02:03:00,36.3,32.8,30.31,West,270,0.0,0.0,87,0.00,,,0.00,WUHU21623XXSP,2013-10-14 07:03:00,
2013-10-14 02:08:00,36.3,32.8,30.30,West,270,0.0,0.0,87,0.00,,,0.00,WUHU21623XXSP,2013-10-14 07:08:00,
2013-10-14 02:13:00,36.5,32.9,30.31,West,270,0.0,0.0,87,0.00,,,0.00,WUHU21623XXSP,2013-10-14 07:13:00,
2013-10-14 02:18:00,37.0,33.5,30.31,West,270,0.0,0.0,87,0.00,,,0.00,WUHU21623XXSP,2013-10-14 07:18:00,
2013-10-14 02:23:00,37.2,33.7,30.31,West,270,0.0,0.0,87,0.00,,,0.00,WUHU21623XXSP,2013-10-14 07:23:00,
2013-10-14 02:28:00,37.0,33.5,30.31,West,270,0.0,0.0,87,0.00,,,0.00,WUHU21623XXSP,2013-10-14 07:28:00,
2013-10-14 02:33:00,36.5,32.9,30.30,West,270,0.0,0.0,87,0.00,,,0.00,WUHU21623XXSP,2013-10-14 07:33:00,
2013-10-14 02:38:00,36.3,32.8,30.30,West,270,0.0,0.0,87,0.00,,,0.00,WUHU21623XXSP,2013-10-14 07:38:00,
2013-10-14 02:43:00,36.5,32.9,30.31,West,270,0.0,0.0,87,0.00,,,0.00,WUHU21623XXSP,2013-10-14 07:43:00,
2013-10-14 02:48:00,36.3,32.8,30.31,West,270,0.0,0.0,87,0.00,,,0.00,WUHU21623XXSP,2013-10-14 07:48:00,
2013-10-14 02:53:00,36.5,32.9,30.31,West,270,0.0,0.0,87,0.00,,,0.00,WUHU21623XXSP,2013-10-14 07:53:00,
2013-10-14 02:58:00,36.3,32.8,30.31,West,270,0.0,0.0,87,0.00,,,0.00,WUHU21623XXSP,2013-10-14 07:58:00,
2013-10-14 03:03:00,36.0,32.4,30.31,West,270,0.0,0.0,87,0.00,,,0.00,WUHU21623XXSP,2013-10-14 08:03:00,
2013-10-14 03:08:00,36.3,32.8,30.31,West,270,0.0,0.0,87,0.00,,,0.00,WUHU21623XXSP,2013-10-14 08:08:00,
2013-10-14 03:13:00,36.3,32.8,30.30,West,270,0.0,0.0,87,0.00,,,0.00,WUHU21623XXSP,2013-10-14 08:13:00,
2013-10-14 03:18:00,36.3,32.8,30.30,West,270,0.0,0.0,87,0.00,,,0.00,WUHU21623XXSP,2013-10-14 08:18:00,
2013-10-14 03:23:00,35.8,32.2,30.30,West,270,0.0,0.0,87,0.00,,,0.00,WUHU21623XXSP,2013-10-14 08:23:00,
2013-10-14 03:28:00,35.8,32.2,30.30,West,270,0.0,0.0,87,0.00,,,0.00,WUHU21623XXSP,2013-10-14 08:28:00,
2013-10-14 03:33:00,35.4,31.9,30.30,West,270,0.0,0.0,87,0.00,,,0.00,WUHU21623XXSP,2013-10-14 08:33:00,
2013-10-14 03:38:00,35.8,32.5,30.30,West,270,0.0,0.0,88,0.00,,,0.00,WUHU21623XXSP,2013-10-14 08:38:00,
2013-10-14 03:43:00,35.8,32.5,30.30,West,270,0.0,0.0,88,0.00,,,0.00,WUHU21623XXSP,2013-10-14 08:43:00,
2013-10-14 03:48:00,35.8,32.5,30.30,West,270,0.0,0.0,88,0.00,,,0.00,WUHU21623XXSP,2013-10-14 08:48:00,
2013-10-14 03:53:00,35.4,32.1,30.29,West,270,0.0,0.0,88,0.00,,,0.00,WUHU21623XXSP,2013-10-14 08:53:00,
2013-10-14 03:58:00,35.8,32.5,30.29,West,270,0.0,0.0,88,0.00,,,0.00,WUHU21623XXSP,2013-10-14 08:58:00,
2013-10-14 04:03:00,35.8,32.5,30.29,West,270,0.0,0.0,88,0.00,,,0.00,WUHU21623XXSP,2013-10-14 09:03:00,
2013-10-14 04:08:00,35.2,32.0,30.29,West,270,0.0,0.0,88,0.00,,,0.00,WUHU21623XXSP,2013-10-14 09:08:00,
2013-10-14 04:13:00,35.2,32.0,30.30,West,270,0.0,0.0,88,0.00,,,0.00,WUHU21623XXSP,2013-10-14 09:13:00,
2013-10-14 04:18:00,35.8,32.5,30.29,West,270,0.0,0.0,88,0.00,,,0.00,WUHU21623XXSP,2013-10-14 09:18:00,
2013-10-14 04:23:00,35.4,32.1,30.29,West,270,0.0,0.0,88,0.00,,,0.00,WUHU21623XXSP,2013-10-14 09:23:00,
2013-10-14 04:28:00,35.4,32.1,30.30,West,270,0.0,0.0,88,0.00,,,0.00,WUHU21623XXSP,2013-10-14 09:28:00,
2013-10-14 04:33:00,35.2,32.0,30.29,West,270,0.0,0.0,88,0.00,,,0.00,WUHU21623XXSP,2013-10-14 09:33:00,
2013-10-14 04:38:00,35.2,32.0,30.29,West,270,0.0,0.0,88,0.00,,,0.00,WUHU21623XXSP,2013-10-14 09:38:00,
2013-10-14 04:43:00,34.9,31.6,30.29,West,270,0.0,0.0,88,0.00,,,0.00,WUHU21623XXSP,2013-10-14 09:43:00,
2013-10-14 04:48:00,34.5,31.2,30.29,West,270,0.0,0.0,88,0.00,,,0.00,WUHU21623XXSP,2013-10-14 09:48:00,
2013-10-14 04:53:00,34.3,31.1,30.30,West,270,0.0,0.0,88,0.00,,,0.00,WUHU21623XXSP,2013-10-14 09:53:00,
2013-10-14 04:58:00,34.9,31.6,30.29,West,270,0.0,0.0,88,0.00,,,0.00,WUHU21623XXSP,2013-10-14 09:58:00,
2013-10-14 05:03:00,35.2,32.0,30.29,West,270,0.0,0.0,88,0.00,,,0.00,WUHU21623XXSP,2013-10-14 10:03:00,
2013-10-14 05:08:00,35.2,32.0,30.28,West,270,0.0,0.0,88,0.00,,,0.00,WUHU21623XXSP,2013-10-14 10:08:00,
2013-10-14 05:13:00,35.2,32.0,30.28,West,270,0.0,0.0,88,0.00,,,0.00,WUHU21623XXSP,2013-10-14 10:13:00,
2013-10-14 05:18:00,34.9,31.6,30.28,West,270,0.0,0.0,88,0.00,,,0.00,WUHU21623XXSP,2013-10-14 10:18:00,
2013-10-14 05:23:00,34.9,31.6,30.28,West,270,0.0,0.0,88,0.00,,,0.00,WUHU21623XXSP,2013-10-14 10:23:00,
2013-10-14 05:28:00,34.5,31.2,30.29,West,270,0.0,0.0,88,0.00,,,0.00,WUHU21623XXSP,2013-10-14 10:28:00,
2013-10-14 05:33:00,34.3,31.1,30.29,West,270,0.0,0.0,88,0.00,,,0.00,WUHU21623XXSP,2013-10-14 10:33:00,
2013-10-14 05:38:00,34.3,31.1,30.29,West,270,0.0,0.0,88,0.00,,,0.00,WUHU21623XXSP,2013-10-14 10:38:00,
2013-10-14 05:43:00,34.7,31.4,30.29,West,270,0.0,0.0,88,0.00,,,0.00,WUHU21623XXSP,2013-10-14 10:43:00,
2013-10-14 05:48:00,34.5,31.2,30.29,West,270,0.0,0.0,88,0.00,,,0.00,WUHU21623XXSP,2013-10-14 10:48:00,
2013-10-14 05:53:00,34.7,31.4,30.28,West,270,0.0,0.0,88,0.00,,,0.00,WUHU21623XXSP,2013-10-14 10:53:00,
2013-10-14 05:58:00,34.9,31.6,30.28,West,270,0.0,0.0,88,0.00,,,0.00,WUHU21623XXSP,2013-10-14 10:58:00,
2013-10-14 06:03:00,34.7,31.4,30.28,West,270,0.0,0.0,88,0.00,,,0.00,WUHU21623XXSP,2013-10-14 11:03:00,
2013-10-14 06:08:00,34.5,31.0,30.28,West,270,0.0,0.0,87,0.00,,,0.00,WUHU21623XXSP,2013-10-14 11:08:00,
2013-10-14 06:13:00,34.3,30.8,30.28,West,270,0.0,0.0,87,0.00,,,0.00,WUHU21623XXSP,2013-10-14 11:13:00,
2013-10-14 06:18:00,34.7,31.1,30.29,West,270,0.0,0.0,87,0.00,,,0.00,WUHU21623XXSP,2013-10-14 11:18:00,
2013-10-14 06:23:00,35.2,31.7,30.28,West,270,0.0,0.0,87,0.00,,,0.00,WUHU21623XXSP,2013-10-14 11:23:00,
2013-10-14 06:28:00,35.4,31.9,30.28,West,270,0.0,0.0,87,0.00,,,0.00,WUHU21623XXSP,2013-10-14 11:28:00,
2013-10-14 06:33:00,35.4,31.9,30.28,WSW,247,0.0,0.0,87,0.00,,,0.00,WUHU21623XXSP,2013-10-14 11:33:00,
2013-10-14 06:38:00,35.4,31.9,30.28,WSW,247,0.0,0.0,87,0.00,,,0.00,WUHU21623XXSP,2013-10-14 11:38:00,
2013-10-14 06:43:00,35.4,31.9,30.28,WSW,247,0.0,0.0,87,0.00,,,0.00,WUHU21623XXSP,2013-10-14 11:43:00,
2013-10-14 06:48:00,35.4,31.9,30.28,WSW,247,0.0,0.0,87,0.00,,,0.00,WUHU21623XXSP,2013-10-14 11:48:00,
2013-10-14 06:53:00,35.4,31.9,30.28,WSW,247,0.0,0.0,87,0.00,,,0.00,WUHU21623XXSP,2013-10-14 11:53:00,
2013-10-14 06:58:00,35.4,31.9,30.28,WSW,247,0.0,0.0,87,0.00,,,0.00,WUHU21623XXSP,2013-10-14 11:58:00,
2013-10-14 07:03:00,35.4,31.9,30.28,WSW,247,0.0,0.0,87,0.00,,,0.00,WUHU21623XXSP,2013-10-14 12:03:00,
2013-10-14 07:08:00,35.4,31.9,30.29,SW,225,0.0,0.0,87,0.00,,,0.00,WUHU21623XXSP,2013-10-14 12:08:00,
2013-10-14 07:13:00,35.8,32.2,30.28,South,180,0.0,0.0,87,0.00,,,0.00,WUHU21623XXSP,2013-10-14 12:13:00,
2013-10-14 07:18:00,35.8,32.2,30.28,South,180,0.0,0.0,87,0.00,,,0.00,WUHU21623XXSP,2013-10-14 12:18:00,
2013-10-14 07:23:00,36.0,32.4,30.28,South,180,0.0,0.0,87,0.00,,,0.00,WUHU21623XXSP,2013-10-14 12:23:00,
2013-10-14 07:28:00,36.0,32.7,30.28,South,180,0.0,0.0,88,0.00,,,0.00,WUHU21623XXSP,2013-10-14 12:28:00,
2013-10-14 07:33:00,36.3,33.0,30.28,South,180,0.0,0.0,88,0.00,,,0.00,WUHU21623XXSP,2013-10-14 12:33:00,
2013-10-14 07:38:00,36.7,33.4,30.28,SSE,157,0.0,0.0,88,0.00,,,0.00,WUHU21623XXSP,2013-10-14 12:38:00,
2013-10-14 07:43:00,36.7,33.4,30.28,SSE,157,0.0,0.0,88,0.00,,,0.00,WUHU21623XXSP,2013-10-14 12:43:00,
2013-10-14 07:48:00,36.9,33.3,30.28,SSE,157,0.0,0.0,87,0.00,,,0.00,WUHU21623XXSP,2013-10-14 12:48:00,
2013-10-14 07:53:00,37.0,33.5,30.28,SSE,157,0.0,0.0,87,0.00,,,0.00,WUHU21623XXSP,2013-10-14 12:53:00,
2013-10-14 07:58:00,37.2,33.7,30.27,SSE,157,0.0,0.0,87,0.00,,,0.00,WUHU21623XXSP,2013-10-14 12:58:00,
2013-10-14 08:03:00,37.2,33.7,30.27,SSE,157,0.0,0.0,87,0.00,,,0.00,WUHU21623XXSP,2013-10-14 13:03:00,
2013-10-14 08:08:00,37.2,33.7,30.27,SSE,157,0.0,0.0,87,0.00,,,0.00,WUHU21623XXSP,2013-10-14 13:08:00,
2013-10-14 08:13:00,37.4,33.8,30.28,SSE,157,0.0,0.0,87,0.00,,,0.00,WUHU21623XXSP,2013-10-14 13:13:00,
2013-10-14 08:18:00,37.6,34.0,30.28,SSE,157,0.0,0.0,87,0.00,,,0.00,WUHU21623XXSP,2013-10-14 13:18:00,
2013-10-14 08:23:00,37.9,34.7,30.28,SSE,157,0.0,0.0,88,0.00,,,0.00,WUHU21623XXSP,2013-10-14 13:23:00,
2013-10-14 08:28:00,37.9,34.7,30.28,SSE,157,0.0,0.0,88,0.00,,,0.00,WUHU21623XXSP,2013-10-14 13:28:00,
2013-10-14 08:33:00,38.1,34.8,30.28,SSE,157,0.0,0.0,88,0.00,,,0.00,WUHU21623XXSP,2013-10-14 13:33:00,
2013-10-14 08:38:00,38.5,35.2,30.28,SSE,157,0.0,0.0,88,0.00,,,0.00,WUHU21623XXSP,2013-10-14 13:38:00,
2013-10-14 08:43:00,38.8,35.6,30.28,SSE,157,0.0,0.0,88,0.00,,,0.00,WUHU21623XXSP,2013-10-14 13:43:00,
2013-10-14 08:48:00,39.0,35.5,30.28,SSE,157,0.0,0.0,87,0.00,,,0.00,WUHU21623XXSP,2013-10-14 13:48:00,
2013-10-14 08:53:00,39.6,36.3,30.28,SSE,157,0.0,0.0,88,0.00,,,0.00,WUHU21623XXSP,2013-10-14 13:53:00,
2013-10-14 08:58:00,39.9,36.0,30.28,SSE,157,0.0,0.0,86,0.00,,,0.00,WUHU21623XXSP,2013-10-14 13:58:00,
2013-10-14 09:03:00,39.9,35.4,30.28,SSE,157,0.0,0.0,84,0.00,,,0.00,WUHU21623XXSP,2013-10-14 14:03:00,
2013-10-14 09:08:00,40.3,36.1,30.28,SSE,157,0.0,0.0,85,0.00,,,0.00,WUHU21623XXSP,2013-10-14 14:08:00,
2013-10-14 09:13:00,40.8,36.6,30.28,SSE,157,0.0,0.0,85,0.00,,,0.00,WUHU21623XXSP,2013-10-14 14:13:00,
2013-10-14 09:18:00,41.2,37.0,30.28,SSE,157,0.0,0.0,85,0.00,,,0.00,WUHU21623XXSP,2013-10-14 14:18:00,
2013-10-14 09:23:00,41.5,37.3,30.28,SSE,157,0.0,0.0,85,0.00,,,0.00,WUHU21623XXSP,2013-10-14 14:23:00,
2013-10-14 09:28:00,41.5,37.0,30.28,SSE,157,0.0,0.0,84,0.00,,,0.00,WUHU21623XXSP,2013-10-14 14:28:00,
2013-10-14 09:33:00,41.9,37.4,30.29,SSE,157,0.0,0.0,84,0.00,,,0.00,WUHU21623XXSP,2013-10-14 14:33:00,
2013-10-14 09:38:00,42.4,37.6,30.29,SSE,157,0.0,0.0,83,0.00,,,0.00,WUHU21623XXSP,2013-10-14 14:38:00,
2013-10-14 09:43:00,42.6,36.5,30.28,SSE,157,0.0,0.0,79,0.00,,,0.00,WUHU21623XXSP,2013-10-14 14:43:00,
2013-10-14 09:48:00,42.6,35.9,30.29,SSE,157,0.0,0.0,77,0.00,,,0.00,WUHU21623XXSP,2013-10-14 14:48:00,
2013-10-14 09:53:00,42.8,35.7,30.28,SSE,157,0.0,0.0,76,0.00,,,0.00,WUHU21623XXSP,2013-10-14 14:53:00,
2013-10-14 09:58:00,43.0,35.9,30.28,SSE,157,0.0,0.0,75,0.00,,,0.00,WUHU21623XXSP,2013-10-14 14:58:00,
2013-10-14 10:03:00,43.5,37.1,30.28,SSE,157,0.0,0.0,78,0.00,,,0.00,WUHU21623XXSP,2013-10-14 15:03:00,
2013-10-14 10:08:00,43.5,36.1,30.29,SSE,157,0.0,0.0,75,0.00,,,0.00,WUHU21623XXSP,2013-10-14 15:08:00,
2013-10-14 10:13:00,43.5,36.1,30.29,SSE,157,0.0,0.0,75,0.00,,,0.00,WUHU21623XXSP,2013-10-14 15:13:00,
2013-10-14 10:18:00,43.9,36.4,30.29,SSE,157,0.0,0.0,75,0.00,,,0.00,WUHU21623XXSP,2013-10-14 15:18:00,
2013-10-14 10:23:00,44.4,37.0,30.29,SSE,157,0.0,0.0,75,0.00,,,0.00,WUHU21623XXSP,2013-10-14 15:23:00,
2013-10-14 10:28:00,44.6,36.4,30.28,SSE,157,0.0,0.0,73,0.00,,,0.00,WUHU21623XXSP,2013-10-14 15:28:00,
2013-10-14 10:33:00,45.0,36.5,30.29,SSE,157,0.0,0.0,72,0.00,,,0.00,WUHU21623XXSP,2013-10-14 15:33:00,
2013-10-14 10:38:00,45.3,36.5,30.29,SSE,157,0.0,0.0,71,0.00,,,0.00,WUHU21623XXSP,2013-10-14 15:38:00,
2013-10-14 10:43:00,45.7,36.8,30.28,SSE,157,0.0,0.0,71,0.00,,,0.00,WUHU21623XXSP,2013-10-14 15:43:00,
2013-10-14 10:48:00,45.9,36.7,30.28,SSE,157,0.0,0.0,70,0.00,,,0.00,WUHU21623XXSP,2013-10-14 15:48:00,
2013-10-14 10:53:00,46.0,36.9,30.28,SSE,157,0.0,0.0,70,0.00,,,0.00,WUHU21623XXSP,2013-10-14 15:53:00,
2013-10-14 10:58:00,46.2,37.4,30.28,SSE,157,0.0,0.0,71,0.00,,,0.00,WUHU21623XXSP,2013-10-14 15:58:00,
2013-10-14 11:03:00,46.2,36.6,30.28,SSE,157,0.0,0.0,69,0.00,,,0.00,WUHU21623XXSP,2013-10-14 16:03:00,
2013-10-14 11:08:00,46.2,36.6,30.27,SSE,157,0.0,0.0,69,0.00,,,0.00,WUHU21623XXSP,2013-10-14 16:08:00,
2013-10-14 11:13:00,46.4,36.4,30.28,SSE,157,0.0,0.0,68,0.00,,,0.00,WUHU21623XXSP,2013-10-14 16:13:00,
2013-10-14 11:18:00,46.2,36.2,30.27,SSE,157,0.0,0.0,68,0.00,,,0.00,WUHU21623XXSP,2013-10-14 16:18:00,
2013-10-14 11:23:00,46.2,36.2,30.27,SE,135,0.0,0.0,68,0.00,,,0.00,WUHU21623XXSP,2013-10-14 16:23:00,
2013-10-14 11:28:00,46.2,36.6,30.28,SE,135,0.0,0.0,69,0.00,,,0.00,WUHU21623XXSP,2013-10-14 16:28:00,
2013-10-14 11:33:00,46.4,36.8,30.27,SSE,157,0.0,0.0,69,0.00,,,0.00,WUHU21623XXSP,2013-10-14 16:33:00,
2013-10-14 11:38:00,46.6,37.4,30.27,SE,135,0.0,0.0,70,0.00,,,0.00,WUHU21623XXSP,2013-10-14 16:38:00,
2013-10-14 11:43:00,46.8,36.8,30.27,East,90,0.0,0.0,68,0.00,,,0.00,WUHU21623XXSP,2013-10-14 16:43:00,
2013-10-14 11:48:00,46.9,37.3,30.27,SSE,157,0.0,0.0,69,0.00,,,0.00,WUHU21623XXSP,2013-10-14 16:48:00,
2013-10-14 11:53:00,46.9,37.3,30.26,SE,135,0.0,0.0,69,0.00,,,0.00,WUHU21623XXSP,2013-10-14 16:53:00,
2013-10-14 11:58:00,47.3,37.3,30.26,ESE,112,0.0,0.0,68,0.00,,,0.00,WUHU21623XXSP,2013-10-14 16:58:00,
2013-10-14 12:03:00,47.3,37.3,30.27,SE,135,0.0,0.0,68,0.00,,,0.00,WUHU21623XXSP,2013-10-14 17:03:00,
2013-10-14 12:08:00,47.5,37.4,30.26,SE,135,0.0,0.0,68,0.00,,,0.00,WUHU21623XXSP,2013-10-14 17:08:00,
2013-10-14 12:13:00,47.8,37.4,30.26,SE,135,0.0,0.0,67,0.00,,,0.00,WUHU21623XXSP,2013-10-14 17:13:00,
2013-10-14 12:18:00,48.0,37.5,30.25,SE,135,0.0,0.0,67,0.00,,,0.00,WUHU21623XXSP,2013-10-14 17:18:00,
2013-10-14 12:23:00,48.4,37.9,30.25,SE,135,0.0,0.0,67,0.00,,,0.00,WUHU21623XXSP,2013-10-14 17:23:00,
2013-10-14 12:28:00,48.4,37.5,30.25,SSE,157,0.0,0.0,66,0.00,,,0.00,WUHU21623XXSP,2013-10-14 17:28:00,
2013-10-14 12:33:00,48.6,37.3,30.25,SSE,157,0.0,0.0,65,0.00,,,0.00,WUHU21623XXSP,2013-10-14 17:33:00,
2013-10-14 12:38:00,48.9,37.2,30.25,SSE,157,0.0,0.0,64,0.00,,,0.00,WUHU21623XXSP,2013-10-14 17:38:00,
2013-10-14 12:43:00,48.7,36.7,30.24,SSE,157,0.0,0.0,63,0.00,,,0.00,WUHU21623XXSP,2013-10-14 17:43:00,
2013-10-14 12:48:00,48.9,37.2,30.24,SSE,157,0.0,0.0,64,0.00,,,0.00,WUHU21623XXSP,2013-10-14 17:48:00,
2013-10-14 12:53:00,48.9,36.9,30.24,South,180,0.0,0.0,63,0.00,,,0.00,WUHU21623XXSP,2013-10-14 17:53:00,
2013-10-14 12:58:00,48.7,36.3,30.24,South,180,0.0,0.0,62,0.00,,,0.00,WUHU21623XXSP,2013-10-14 17:58:00,
2013-10-14 13:03:00,48.9,36.1,30.24,South,180,0.0,0.0,61,0.00,,,0.00,WUHU21623XXSP,2013-10-14 18:03:00,
2013-10-14 13:08:00,49.3,36.8,30.24,South,180,0.0,0.0,62,0.00,,,0.00,WUHU21623XXSP,2013-10-14 18:08:00,
2013-10-14 13:13:00,49.1,36.6,30.24,South,180,0.0,0.0,62,0.00,,,0.00,WUHU21623XXSP,2013-10-14 18:13:00,
2013-10-14 13:18:00,48.9,36.9,30.24,ESE,112,0.0,0.0,63,0.00,,,0.00,WUHU21623XXSP,2013-10-14 18:18:00,
2013-10-14 13:23:00,49.1,36.6,30.23,SE,135,0.0,0.0,62,0.00,,,0.00,WUHU21623XXSP,2013-10-14 18:23:00,
2013-10-14 13:28:00,49.3,37.2,30.24,SE,135,0.0,0.0,63,0.00,,,0.00,WUHU21623XXSP,2013-10-14 18:28:00,
2013-10-14 13:33:00,49.3,36.8,30.24,SE,135,0.0,0.0,62,0.00,,,0.00,WUHU21623XXSP,2013-10-14 18:33:00,
2013-10-14 13:38:00,49.5,36.2,30.23,SE,135,0.0,0.0,60,0.00,,,0.00,WUHU21623XXSP,2013-10-14 18:38:00,
2013-10-14 13:43:00,49.8,36.9,30.23,SE,135,0.0,0.0,61,0.00,,,0.00,WUHU21623XXSP,2013-10-14 18:43:00,
2013-10-14 13:48:00,49.8,36.9,30.23,NNE,22,0.0,0.0,61,0.00,,,0.00,WUHU21623XXSP,2013-10-14 18:48:00,
2013-10-14 13:53:00,49.8,36.5,30.23,East,90,0.0,0.0,60,0.00,,,0.00,WUHU21623XXSP,2013-10-14 18:53:00,
2013-10-14 13:58:00,49.8,36.5,30.22,East,90,0.0,0.0,60,0.00,,,0.00,WUHU21623XXSP,2013-10-14 18:58:00,
2013-10-14 14:03:00,50.0,37.1,30.22,East,90,0.0,0.0,61,0.00,,,0.00,WUHU21623XXSP,2013-10-14 19:03:00,
2013-10-14 14:08:00,50.2,37.2,30.22,East,90,0.0,0.0,61,0.00,,,0.00,WUHU21623XXSP,2013-10-14 19:08:00,
2013-10-14 14:13:00,50.2,36.8,30.22,East,90,0.0,0.0,60,0.00,,,0.00,WUHU21623XXSP,2013-10-14 19:13:00,
2013-10-14 14:18:00,50.2,37.2,30.22,East,90,0.0,0.0,61,0.00,,,0.00,WUHU21623XXSP,2013-10-14 19:18:00,
2013-10-14 14:23:00,50.4,37.4,30.22,East,90,0.0,0.0,61,0.00,,,0.00,WUHU21623XXSP,2013-10-14 19:23:00,
2013-10-14 14:28:00,50.5,36.7,30.21,East,90,0.0,0.0,59,0.00,,,0.00,WUHU21623XXSP,2013-10-14 19:28:00,
2013-10-14 14:33:00,50.5,36.3,30.22,ESE,112,0.0,0.0,58,0.00,,,0.00,WUHU21623XXSP,2013-10-14 19:33:00,
2013-10-14 14:38:00,50.5,36.3,30.21,ESE,112,0.0,0.0,58,0.00,,,0.00,WUHU21623XXSP,2013-10-14 19:38:00,
2013-10-14 14:43:00,50.5,34.9,30.21,SSE,157,0.0,0.0,55,0.00,,,0.00,WUHU21623XXSP,2013-10-14 19:43:00,
2013-10-14 14:48:00,50.4,36.1,30.21,SSE,157,0.0,0.0,58,0.00,,,0.00,WUHU21623XXSP,2013-10-14 19:48:00,
2013-10-14 14:53:00,50.4,36.3,30.20,SSE,157,0.0,0.0,58,0.00,,,0.00,WUHU21623XXSP,2013-10-14 19:53:00,
2013-10-14 14:58:00,50.4,37.4,30.20,SSE,157,0.0,0.0,61,0.00,,,0.00,WUHU21623XXSP,2013-10-14 19:58:00,
2013-10-14 15:03:00,50.4,36.1,30.20,SSE,157,0.0,0.0,58,0.00,,,0.00,WUHU21623XXSP,2013-10-14 20:03:00,
2013-10-14 15:08:00,50.4,35.7,30.20,SSE,157,0.0,0.0,57,0.00,,,0.00,WUHU21623XXSP,2013-10-14 20:08:00,
2013-10-14 15:13:00,50.2,36.4,30.20,South,180,0.0,0.0,59,0.00,,,0.00,WUHU21623XXSP,2013-10-14 20:13:00,
2013-10-14 15:18:00,50.2,35.5,30.20,South,180,0.0,0.0,57,0.00,,,0.00,WUHU21623XXSP,2013-10-14 20:18:00,
2013-10-14 15:23:00,50.2,36.4,30.20,South,180,0.0,0.0,59,0.00,,,0.00,WUHU21623XXSP,2013-10-14 20:23:00,
2013-10-14 15:28:00,50.2,35.9,30.19,South,180,0.0,0.0,58,0.00,,,0.00,WUHU21623XXSP,2013-10-14 20:28:00,
2013-10-14 15:33:00,50.2,36.8,30.19,South,180,0.0,0.0,60,0.00,,,0.00,WUHU21623XXSP,2013-10-14 20:33:00,
2013-10-14 15:38:00,50.2,35.9,30.19,South,180,0.0,0.0,58,0.00,,,0.00,WUHU21623XXSP,2013-10-14 20:38:00,
2013-10-14 15:43:00,50.2,35.5,30.19,South,180,0.0,0.0,57,0.00,,,0.00,WUHU21623XXSP,2013-10-14 20:43:00,
2013-10-14 15:48:00,50.4,36.1,30.19,South,180,0.0,0.0,58,0.00,,,0.00,WUHU21623XXSP,2013-10-14 20:48:00,
2013-10-14 15:53:00,50.2,35.9,30.19,South,180,0.0,0.0,58,0.00,,,0.00,WUHU21623XXSP,2013-10-14 20:53:00,
2013-10-14 15:58:00,50.2,36.8,30.18,South,180,0.0,0.0,60,0.00,,,0.00,WUHU21623XXSP,2013-10-14 20:58:00,
2013-10-14 16:02:00,50.2,36.8,30.18,NNE,22,0.0,0.0,60,0.00,,,0.00,WUHU21623XXSP,2013-10-14 21:02:00,
2013-10-14 16:07:00,49.8,36.9,30.18,NNE,22,0.0,0.0,61,0.00,,,0.00,WUHU21623XXSP,2013-10-14 21:07:00,
2013-10-14 16:12:00,49.6,37.9,30.18,NNE,22,0.0,0.0,64,0.00,,,0.00,WUHU21623XXSP,2013-10-14 21:12:00,
2013-10-14 16:17:00,49.6,37.1,30.18,NNE,22,0.0,0.0,62,0.00,,,0.00,WUHU21623XXSP,2013-10-14 21:17:00,
2013-10-14 16:22:00,49.6,37.5,30.18,NE,45,0.0,0.0,63,0.00,,,0.00,WUHU21623XXSP,2013-10-14 21:22:00,
2013-10-14 16:27:00,49.5,36.6,30.17,ENE,67,0.0,0.0,61,0.00,,,0.00,WUHU21623XXSP,2013-10-14 21:27:00,
2013-10-14 16:32:00,49.3,37.6,30.17,NE,45,0.0,0.0,64,0.00,,,0.00,WUHU21623XXSP,2013-10-14 21:32:00,
2013-10-14 16:37:00,49.3,38.0,30.17,NE,45,0.0,0.0,65,0.00,,,0.00,WUHU21623XXSP,2013-10-14 21:37:00,
2013-10-14 16:42:00,49.3,38.8,30.18,NE,45,0.0,9.6,67,0.00,,,0.00,WUHU21623XXSP,2013-10-14 21:42:00,
2013-10-14 16:47:00,49.1,38.6,30.17,NE,45,0.0,10.3,67,0.00,,,0.00,WUHU21623XXSP,2013-10-14 21:47:00,
2013-10-14 16:52:00,49.1,39.0,30.17,NE,45,0.0,10.3,68,0.00,,,0.00,WUHU21623XXSP,2013-10-14 21:52:00,
2013-10-14 16:57:00,48.9,38.4,30.17,NE,45,0.0,0.0,67,0.00,,,0.00,WUHU21623XXSP,2013-10-14 21:57:00,
2013-10-14 17:02:00,48.9,37.6,30.17,NE,45,0.0,0.0,65,0.00,,,0.00,WUHU21623XXSP,2013-10-14 22:02:00,
2013-10-14 17:07:00,48.7,38.2,30.17,NE,45,0.0,0.0,67,0.00,,,0.00,WUHU21623XXSP,2013-10-14 22:07:00,
2013-10-14 17:12:00,48.7,38.2,30.17,NE,45,0.0,0.0,67,0.00,,,0.00,WUHU21623XXSP,2013-10-14 22:12:00,
2013-10-14 17:17:00,48.6,38.4,30.17,NE,45,0.0,0.0,68,0.00,,,0.00,WUHU21623XXSP,2013-10-14 22:17:00,
2013-10-14 17:22:00,48.4,39.0,30.16,NNE,22,0.0,0.0,70,0.00,,,0.00,WUHU21623XXSP,2013-10-14 22:22:00,
2013-10-14 17:27:00,48.0,38.4,30.16,North,0,0.0,0.0,69,0.00,,,0.00,WUHU21623XXSP,2013-10-14 22:27:00,
2013-10-14 17:32:00,48.0,38.7,30.16,NNE,22,0.0,0.0,70,0.00,,,0.00,WUHU21623XXSP,2013-10-14 22:32:00,
2013-10-14 17:37:00,47.5,39.6,30.16,NNE,22,0.0,0.0,74,0.00,,,0.00,WUHU21623XXSP,2013-10-14 22:37:00,
2013-10-14 17:42:00,47.1,39.9,30.17,NNE,22,0.0,0.0,76,0.00,,,0.00,WUHU21623XXSP,2013-10-14 22:42:00,
2013-10-14 17:47:00,47.1,39.6,30.17,NNE,22,0.0,0.0,75,0.00,,,0.00,WUHU21623XXSP,2013-10-14 22:47:00,
2013-10-14 17:52:00,46.4,40.3,30.17,NNE,22,0.0,0.0,79,0.00,,,0.00,WUHU21623XXSP,2013-10-14 22:52:00,
2013-10-14 17:57:00,46.0,40.3,30.17,NNE,22,0.0,0.0,80,0.00,,,0.00,WUHU21623XXSP,2013-10-14 22:57:00,
2013-10-14 18:02:00,45.7,40.5,30.17,NNE,22,0.0,0.0,82,0.00,,,0.00,WUHU21623XXSP,2013-10-14 23:02:00,
2013-10-14 18:07:00,45.3,40.4,30.17,North,0,0.0,0.0,83,0.00,,,0.00,WUHU21623XXSP,2013-10-14 23:07:00,
2013-10-14 18:12:00,45.0,40.1,30.17,North,0,0.0,0.0,83,0.00,,,0.00,WUHU21623XXSP,2013-10-14 23:12:00,
2013-10-14 18:17:00,44.8,39.9,30.17,NNE,22,0.0,0.0,83,0.00,,,0.00,WUHU21623XXSP,2013-10-14 23:17:00,
2013-10-14 18:22:00,44.4,39.9,30.17,North,0,0.0,0.0,84,0.00,,,0.00,WUHU21623XXSP,2013-10-14 23:22:00,
2013-10-14 18:27:00,44.2,39.4,30.17,North,0,0.0,0.0,83,0.02,,,0.02,WUHU21623XXSP,2013-10-14 23:27:00,
2013-10-14 18:32:00,43.9,39.3,30.17,NNE,22,0.0,0.0,84,0.02,,,0.02,WUHU21623XXSP,2013-10-14 23:32:00,
2013-10-14 18:37:00,43.9,39.6,30.17,NNE,22,0.0,0.0,85,0.02,,,0.02,WUHU21623XXSP,2013-10-14 23:37:00,
2013-10-14 18:42:00,43.9,40.0,30.17,NNE,22,0.0,0.0,86,0.02,,,0.02,WUHU21623XXSP,2013-10-14 23:42:00,
2013-10-14 18:47:00,43.7,40.1,30.17,NNE,22,0.0,0.0,87,0.02,,,0.02,WUHU21623XXSP,2013-10-14 23:47:00,
2013-10-14 18:52:00,43.5,39.9,30.17,NNE,22,0.0,0.0,87,0.02,,,0.02,WUHU21623XXSP,2013-10-14 23:52:00,
2013-10-14 18:57:00,43.5,39.9,30.17,NNE,22,0.0,0.0,87,0.02,,,0.02,WUHU21623XXSP,2013-10-14 23:57:00,
2013-10-14 19:02:00,43.5,39.9,30.16,NNE,22,0.0,0.0,87,0.02,,,0.02,WUHU21623XXSP,2013-10-15 00:02:00,
2013-10-14 19:07:00,43.5,39.9,30.16,NNE,22,0.0,0.0,87,0.02,,,0.02,WUHU21623XXSP,2013-10-15 00:07:00,
2013-10-14 19:12:00,43.5,39.9,30.17,NNE,22,0.0,0.0,87,0.02,,,0.02,WUHU21623XXSP,2013-10-15 00:12:00,
2013-10-14 19:17:00,43.5,39.9,30.17,NNE,22,0.0,0.0,87,0.02,,,0.02,WUHU21623XXSP,2013-10-15 00:17:00,
2013-10-14 19:22:00,43.3,39.7,30.17,NNE,22,0.0,0.0,87,0.04,,,0.04,WUHU21623XXSP,2013-10-15 00:22:00,
2013-10-14 19:27:00,43.3,39.7,30.17,NNE,22,0.0,0.0,87,0.02,,,0.04,WUHU21623XXSP,2013-10-15 00:27:00,
2013-10-14 19:32:00,43.3,39.7,30.16,NNE,22,0.0,0.0,87,0.02,,,0.04,WUHU21623XXSP,2013-10-15 00:32:00,
2013-10-14 19:37:00,43.2,39.5,30.17,NNE,22,0.0,0.0,87,0.02,,,0.04,WUHU21623XXSP,2013-10-15 00:37:00,
2013-10-14 19:42:00,43.2,39.5,30.16,NNE,22,0.0,0.0,87,0.02,,,0.04,WUHU21623XXSP,2013-10-15 00:42:00,
2013-10-14 19:47:00,43.3,39.7,30.16,NNE,22,0.0,0.0,87,0.02,,,0.04,WUHU21623XXSP,2013-10-15 00:47:00,
2013-10-14 19:52:00,43.2,39.5,30.16,NNE,22,0.0,0.0,87,0.02,,,0.04,WUHU21623XXSP,2013-10-15 00:52:00,
2013-10-14 19:57:00,43.3,39.7,30.16,NNE,22,0.0,0.0,87,0.02,,,0.04,WUHU21623XXSP,2013-10-15 00:57:00,
2013-10-14 20:02:00,43.3,39.7,30.16,NNE,22,0.0,0.0,87,0.02,,,0.04,WUHU21623XXSP,2013-10-15 01:02:00,
2013-10-14 20:07:00,43.5,39.9,30.15,NNE,22,3.1,4.0,87,0.02,,,0.04,WUHU21623XXSP,2013-10-15 01:07:00,
2013-10-14 20:12:00,43.3,39.7,30.16,NNE,22,0.0,4.0,87,0.02,,,0.04,WUHU21623XXSP,2013-10-15 01:12:00,
2013-10-14 20:17:00,43.2,39.5,30.16,NE,45,0.0,0.0,87,0.04,,,0.06,WUHU21623XXSP,2013-10-15 01:17:00,
2013-10-14 20:22:00,43.2,39.5,30.16,NE,45,0.0,0.0,87,0.02,,,0.06,WUHU21623XXSP,2013-10-15 01:22:00,
2013-10-14 20:27:00,43.2,39.5,30.16,NE,45,0.0,0.0,87,0.02,,,0.06,WUHU21623XXSP,2013-10-15 01:27:00,
2013-10-14 20:32:00,43.0,39.4,30.16,NE,45,0.0,0.0,87,0.02,,,0.06,WUHU21623XXSP,2013-10-15 01:32:00,
2013-10-14 20:37:00,43.0,39.7,30.16,ESE,112,0.0,0.0,88,0.02,,,0.06,WUHU21623XXSP,2013-10-15 01:37:00,
2013-10-14 20:42:00,42.8,39.5,30.16,ESE,112,0.0,0.0,88,0.02,,,0.06,WUHU21623XXSP,2013-10-15 01:42:00,
2013-10-14 20:47:00,42.6,39.3,30.16,ESE,112,0.0,0.0,88,0.04,,,0.08,WUHU21623XXSP,2013-10-15 01:47:00,
2013-10-14 20:52:00,43.0,39.7,30.16,ESE,112,0.0,0.0,88,0.04,,,0.08,WUHU21623XXSP,2013-10-15 01:52:00,
2013-10-14 20:57:00,43.0,39.7,30.16,ESE,112,0.0,0.0,88,0.04,,,0.08,WUHU21623XXSP,2013-10-15 01:57:00,
2013-10-14 21:02:00,43.0,39.7,30.16,ESE,112,0.0,0.0,88,0.04,,,0.08,WUHU21623XXSP,2013-10-15 02:02:00,
2013-10-14 21:07:00,43.0,39.7,30.17,ESE,112,0.0,0.0,88,0.04,,,0.08,WUHU21623XXSP,2013-10-15 02:07:00,
2013-10-14 21:12:00,43.0,39.7,30.17,ESE,112,0.0,0.0,88,0.04,,,0.08,WUHU21623XXSP,2013-10-15 02:12:00,
2013-10-14 21:17:00,42.6,39.3,30.17,ESE,112,0.0,0.0,88,0.04,,,0.10,WUHU21623XXSP,2013-10-15 02:17:00,
2013-10-14 21:22:00,42.6,39.3,30.16,NNE,22,0.0,0.0,88,0.04,,,0.10,WUHU21623XXSP,2013-10-15 02:22:00,
2013-10-14 21:27:00,42.6,39.3,30.16,SSE,157,0.0,0.0,88,0.04,,,0.10,WUHU21623XXSP,2013-10-15 02:27:00,
2013-10-14 21:32:00,42.6,39.3,30.15,ESE,112,0.0,0.0,88,0.06,,,0.12,WUHU21623XXSP,2013-10-15 02:32:00,
2013-10-14 21:37:00,42.4,39.1,30.15,NE,45,0.0,2.0,88,0.06,,,0.12,WUHU21623XXSP,2013-10-15 02:37:00,
2013-10-14 21:42:00,42.4,39.1,30.14,NNE,22,0.0,2.0,88,0.06,,,0.12,WUHU21623XXSP,2013-10-15 02:42:00,
2013-10-14 21:47:00,42.1,38.8,30.14,NE,45,0.0,1.6,88,0.04,,,0.12,WUHU21623XXSP,2013-10-15 02:47:00,
2013-10-14 21:52:00,42.1,38.8,30.14,ESE,112,0.0,4.3,88,0.06,,,0.14,WUHU21623XXSP,2013-10-15 02:52:00,
2013-10-14 21:57:00,41.9,38.6,30.14,ENE,67,0.0,5.1,88,0.08,,,0.16,WUHU21623XXSP,2013-10-15 02:57:00,
2013-10-14 22:02:00,41.7,38.4,30.14,ENE,67,0.0,5.1,88,0.10,,,0.18,WUHU21623XXSP,2013-10-15 03:02:00,
2013-10-14 22:07:00,41.5,38.2,30.14,ENE,67,0.0,0.0,88,0.12,,,0.20,WUHU21623XXSP,2013-10-15 03:07:00,
2013-10-14 22:12:00,41.5,38.2,30.14,ENE,67,0.0,0.0,88,0.14,,,0.22,WUHU21623XXSP,2013-10-15 03:12:00,
2013-10-14 22:17:00,41.2,37.9,30.14,ENE,67,0.0,0.0,88,0.12,,,0.22,WUHU21623XXSP,2013-10-15 03:17:00,
2013-10-14 22:22:00,41.2,37.9,30.14,SSE,157,0.9,1.6,88,0.14,,,0.24,WUHU21623XXSP,2013-10-15 03:22:00,
2013-10-14 22:27:00,41.2,37.9,30.14,NE,45,0.0,2.2,88,0.14,,,0.24,WUHU21623XXSP,2013-10-15 03:27:00,
2013-10-14 22:32:00,41.0,37.7,30.14,ENE,67,2.2,6.0,88,0.15,,,0.27,WUHU21623XXSP,2013-10-15 03:32:00,
2013-10-14 22:37:00,40.8,37.5,30.13,ENE,67,0.0,6.0,88,0.15,,,0.27,WUHU21623XXSP,2013-10-15 03:37:00,
2013-10-14 22:42:00,40.8,37.5,30.12,ESE,112,0.0,2.7,88,0.17,,,0.29,WUHU21623XXSP,2013-10-15 03:42:00,
2013-10-14 22:47:00,40.8,37.5,30.12,NNE,22,0.0,6.0,88,0.17,,,0.29,WUHU21623XXSP,2013-10-15 03:47:00,
2013-10-14 22:52:00,40.8,37.5,30.11,ENE,67,0.0,6.0,88,0.15,,,0.29,WUHU21623XXSP,2013-10-15 03:52:00,
2013-10-14 22:57:00,40.8,37.5,30.11,SE,135,0.0,5.4,88,0.13,,,0.29,WUHU21623XXSP,2013-10-15 03:57:00,
2013-10-14 23:01:00,40.8,37.5,30.12,ENE,67,2.5,5.4,88,0.11,,,0.29,WUHU21623XXSP,2013-10-15 04:01:00,
2013-10-14 23:02:00,40.8,37.5,30.12,ENE,67,0.0,5.4,88,0.11,,,0.29,WUHU21623XXSP,2013-10-15 04:02:00,
2013-10-14 23:07:00,40.8,37.5,30.12,ESE,112,0.0,4.5,88,0.07,,,0.29,WUHU21623XXSP,2013-10-15 04:07:00,
2013-10-14 23:12:00,40.8,37.5,30.13,SE,135,0.0,1.1,88,0.07,,,0.29,WUHU21623XXSP,2013-10-15 04:12:00,
2013-10-14 23:17:00,40.8,37.5,30.13,ESE,112,0.0,0.0,88,0.07,,,0.29,WUHU21623XXSP,2013-10-15 04:17:00,
2013-10-14 23:22:00,40.8,37.5,30.12,East,90,0.0,1.6,88,0.07,,,0.31,WUHU21623XXSP,2013-10-15 04:22:00,
2013-10-14 23:27:00,40.8,37.5,30.12,SE,135,0.0,1.6,88,0.07,,,0.31,WUHU21623XXSP,2013-10-15 04:27:00,
2013-10-14 23:32:00,40.8,37.5,30.12,NE,45,1.6,2.5,88,0.04,,,0.31,WUHU21623XXSP,2013-10-15 04:32:00,
2013-10-14 23:37:00,40.8,37.5,30.11,ENE,67,0.0,2.5,88,0.04,,,0.31,WUHU21623XXSP,2013-10-15 04:37:00,
2013-10-14 23:42:00,40.8,37.5,30.11,ENE,67,0.0,6.9,88,0.04,,,0.33,WUHU21623XXSP,2013-10-15 04:42:00,
2013-10-14 23:47:00,40.6,37.3,30.11,ENE,67,0.0,6.9,88,0.04,,,0.33,WUHU21623XXSP,2013-10-15 04:47:00,
2013-10-14 23:52:00,40.8,37.5,30.11,ENE,67,0.0,2.9,88,0.04,,,0.33,WUHU21623XXSP,2013-10-15 04:52:00,
2013-10-14 23:57:00,40.8,37.5,30.10,NNE,22,0.0,4.3,88,0.04,,,0.33,WUHU21623XXSP,2013-10-15 04:57:00,